Find Jiaotong-7

NORAD ID: 57627 Int'l Des: 2023-121 Owner: HEAD Country: CN operational
LEOCIRCULAR

当前视图

正在加载3D地球...

About Jiaotong-7

Jiaotong-7 (NORAD 57627) is a satellite launched Aug 14, 2023 by HEAD of CN. It operates in LEO, CIRCULAR orbit with a mass of 40.00 kg.

即将过境

Passes for default location (London). Set your location on the main map for personalized predictions.

高度历史

Loading altitude history...

两行轨道根数

1 57627U 23121B 26195.42891812 .00000064 00000-0 44983-4 0 9996
2 57627 45.0012 170.7549 0004943 35.3854 324.7331 14.61617719155650
Epoch: Jul 14, 2026 • Age: 11 hours

当前状态

高度 704.5 km
远地点 / 近地点 N/A
速度 7.50 km/s
星下点 -43.78°S, 168.48°E
发射日期 Aug 14, 2023
运行时间 2.9 years
类型 other

技术详情

分类 Payload
质量 40.00 kg
干质量 40.00 kg
总质量 40.00 kg
长度 0.50 m
直径 0.20 m
跨度 2.00 m
形状 Box + 2 Pan
制造商 IMICAS
平台类型 WN100
阶段状态 In Orbit
所有者/国家 HEAD/CN

Most Searched